EW8926 Weather Reports


Display with metric or nautical units.
time (UTC)temp
F
wind
direction
speed
MPH
gust
MPH
rain 1hr
in
rain 24hr
in
rain mn
in
humidity
%
barometer
mb
20260503232104 59 105 0.0 2.0 0.00 0.00 0.00 54 1018.7
20260503231605 59 105 0.0 2.0 0.00 0.00 0.00 54 1018.7
20260503231106 59 105 0.0 2.0 0.00 0.00 0.00 54 1018.8
20260503230604 58 205 0.0 2.0 0.00 0.00 0.00 54 1018.9
20260503230104 58 131 1.0 1.0 0.00 0.00 0.00 55 1018.9
20260503225604 58 131 1.0 5.0 0.00 0.00 0.00 55 1018.9
20260503224604 58 147 1.0 3.0 0.00 0.00 0.00 57 1018.9
20260503224104 58 133 1.0 2.0 0.00 0.00 0.00 58 1019.0
20260503223604 58 115 0.0 2.0 0.00 0.00 0.00 60 1019.0
20260503223104 58 115 0.0 2.0 0.00 0.00 0.00 60 1019.0
20260503222604 58 115 0.0 0.0 0.00 0.00 0.00 59 1019.0
20260503222104 58 115 2.0 0.0 0.00 0.00 0.00 60 1019.0
20260503221104 58 115 2.0 3.0 0.00 0.00 0.00 59 1018.9
20260503220605 58 120 2.0 5.0 0.00 0.00 0.00 59 1018.9
20260503220104 59 124 2.0 3.0 0.00 0.00 0.00 58 1018.9
20260503215607 59 127 2.0 3.0 0.00 0.00 0.00 57 1018.9
20260503215104 59 127 2.0 3.0 0.00 0.00 0.00 57 1018.9
20260503214604 58 116 2.0 3.0 0.00 0.00 0.00 57 1018.9
20260503213604 58 133 1.0 5.0 0.00 0.00 0.00 55 1018.8
20260503213103 58 117 1.0 3.0 0.00 0.00 0.00 55 1018.8
20260503212604 58 117 1.0 2.0 0.00 0.00 0.00 54 1018.7
20260503211603 58 117 1.0 2.0 0.00 0.00 0.00 53 1018.7
20260503211104 59 120 1.0 3.0 0.00 0.00 0.00 52 1018.7
20260503210605 59 120 1.0 2.0 0.00 0.00 0.00 51 1018.7
20260503210107 59 120 2.0 2.0 0.00 0.00 0.00 50 1018.7
20260503205605 59 120 2.0 2.0 0.00 0.00 0.00 49 1018.7
20260503205111 59 125 2.0 3.0 0.00 0.00 0.00 49 1018.7
20260503204615 58 152 2.0 3.0 0.00 0.00 0.00 49 1018.7
20260503204105 58 151 2.0 3.0 0.00 0.00 0.00 50 1018.7
20260503203604 58 160 2.0 3.0 0.00 0.00 0.00 50 1018.7
20260503202604 58 133 2.0 3.0 0.00 0.00 0.00 52 1018.8
20260503201604 58 141 1.0 2.0 0.00 0.00 0.00 56 1018.8
20260503201104 58 141 1.0 2.0 0.00 0.00 0.00 57 1018.7
20260503200604 58 141 1.0 2.0 0.00 0.00 0.00 57 1018.7
20260503200106 58 141 2.0 2.0 0.00 0.00 0.00 57 1018.7
20260503195603 58 141 2.0 2.0 0.00 0.00 0.00 57 1018.6
20260503195104 59 141 1.0 3.0 0.00 0.00 0.00 56 1018.5
20260503194604 59 163 1.0 2.0 0.00 0.00 0.00 55 1018.5
20260503194104 59 163 1.0 2.0 0.00 0.00 0.00 55 1018.5
20260503193604 59 130 1.0 2.0 0.00 0.00 0.00 54 1018.5
20260503193104 59 130 1.0 3.0 0.00 0.00 0.00 54 1018.5
20260503192603 59 130 0.0 2.0 0.00 0.00 0.00 53 1018.4
20260503192104 59 130 0.0 0.0 0.00 0.00 0.00 51 1018.3
20260503191603 59 130 0.0 0.0 0.00 0.00 0.00 51 1018.3
20260503191103 60 130 0.0 0.0 0.00 0.00 0.00 50 1018.2
20260503190605 60 130 0.0 0.0 0.00 0.00 0.00 50 1018.1
20260503190104 60 130 1.0 1.0 0.00 0.00 0.00 49 1018.1
20260503185604 61 130 1.0 0.0 0.00 0.00 0.00 51 1018.2
20260503185103 61 130 2.0 2.0 0.00 0.00 0.00 50 1018.2
20260503184604 62 130 2.0 2.0 0.00 0.00 0.00 49 1018.2
20260503184106 62 130 1.0 3.0 0.00 0.00 0.00 49 1018.1
20260503183604 62 181 1.0 3.0 0.00 0.00 0.00 48 1018.1
20260503182104 63 124 2.0 2.0 0.00 0.00 0.00 48 1018.0
20260503180604 65 155 2.0 2.0 0.00 0.00 0.00 46 1018.0
20260503180103 65 166 2.0 2.0 0.00 0.00 0.00 44 1018.0
20260503175104 66 167 2.0 3.0 0.00 0.00 0.00 41 1018.0
20260503173604 67 144 3.0 5.0 0.00 0.00 0.00 38 1018.0
20260503172604 68 156 3.0 7.0 0.00 0.00 0.00 36 1018.1
20260503172103 68 149 3.0 6.0 0.00 0.00 0.00 36 1018.2
20260503171604 68 144 3.0 9.0 0.00 0.00 0.00 36 1018.2
20260503171104 68 141 3.0 9.0 0.00 0.00 0.00 36 1018.1
20260503170603 68 135 3.0 10.0 0.00 0.00 0.00 36 1018.1
20260503170104 69 162 3.0 10.0 0.00 0.00 0.00 36 1018.1
20260503160106 70 151 3.0 6.0 0.00 0.00 0.00 36 1017.9
20260503150104 72 161 3.0 6.0 0.00 0.00 0.00 38 1018.3
20260503140104 72 145 3.0 6.0 0.00 0.00 0.00 36 1019.1
20260503131103 73 152 5.0 10.0 0.00 0.00 0.00 35 1019.7
20260503130604 73 160 5.0 9.0 0.00 0.00 0.00 38 1019.8
20260503120104 74 152 5.0 15.0 0.00 0.00 0.00 34 1020.2
20260503110604 74 134 5.0 9.0 0.00 0.00 0.00 33 1020.1
20260503110106 74 139 5.0 8.0 0.00 0.00 0.00 34 1020.1
20260503081107 69 65 2.0 3.0 0.00 0.00 0.00 40 1020.6
20260503080104 68 116 1.0 3.0 0.00 0.00 0.00 40 1020.6
20260503072604 64 8 1.0 3.0 0.00 0.00 0.00 48 1020.9
20260503072104 64 78 1.0 2.0 0.00 0.00 0.00 49 1020.9
20260503071604 63 78 0.0 2.0 0.00 0.00 0.00 52 1020.9
20260503071103 62 148 0.0 2.0 0.00 0.00 0.00 52 1020.9
20260503070603 61 148 0.0 2.0 0.00 0.00 0.00 56 1020.9
20260503070104 61 148 0.0 2.0 0.00 0.00 0.00 56 1020.9
20260503060105 52 127 1.0 3.0 0.00 0.00 0.00 76 1020.8
20260503055103 51 127 0.0 3.0 0.00 0.00 0.00 74 1020.8
20260503054604 51 127 0.0 0.0 0.00 0.00 0.00 67 1020.8
20260503054104 51 127 0.0 0.0 0.00 0.00 0.00 70 1020.7
20260503053604 50 127 0.0 0.0 0.00 0.00 0.00 69 1020.7
20260503053106 50 127 0.0 0.0 0.00 0.00 0.00 69 1020.7
20260503052603 50 127 0.0 0.0 0.00 0.00 0.00 70 1020.7
20260503052104 50 127 0.0 0.0 0.00 0.00 0.00 71 1020.7
20260503051604 49 127 0.0 2.0 0.00 0.00 0.00 71 1020.7
20260503051104 49 127 1.0 2.0 0.00 0.00 0.00 71 1020.6
20260503050604 49 127 1.0 3.0 0.00 0.00 0.00 71 1020.6
20260503050107 49 127 1.0 2.0 0.00 0.00 0.00 71 1020.6
20260503045604 49 127 0.0 2.0 0.00 0.00 0.00 72 1020.6
20260503045104 48 127 0.0 0.0 0.00 0.00 0.00 72 1020.6
20260503044605 48 127 0.0 2.0 0.00 0.00 0.00 71 1020.6
20260503044105 47 127 1.0 2.0 0.00 0.00 0.00 72 1020.5
20260503043105 47 130 1.0 0.0 0.00 0.00 0.00 71 1020.5
20260503042604 47 130 1.0 3.0 0.00 0.00 0.00 71 1020.5
20260503042103 47 130 1.0 3.0 0.00 0.00 0.00 70 1020.5
20260503040104 49 130 1.0 0.0 0.00 0.00 0.00 67 1020.5
20260503035604 49 130 1.0 2.0 0.00 0.00 0.00 66 1020.5
20260503035105 49 130 1.0 3.0 0.00 0.00 0.00 66 1020.5
20260503034604 49 262 0.0 2.0 0.00 0.00 0.00 64 1020.5
20260503034104 50 262 1.0 0.0 0.00 0.00 0.00 62 1020.5
20260503033603 50 262 1.0 3.0 0.00 0.00 0.00 62 1020.5
20260503033105 50 307 1.0 2.0 0.00 0.00 0.00 62 1020.5
20260503032603 50 307 1.0 3.0 0.00 0.00 0.00 61 1020.6
20260503032104 51 305 1.0 3.0 0.00 0.00 0.00 61 1020.6
20260503031604 51 280 0.0 2.0 0.00 0.00 0.00 60 1020.6
20260503030604 51 137 1.0 2.0 0.00 0.00 0.00 61 1020.5
20260503030104 51 137 2.0 2.0 0.00 0.00 0.00 60 1020.5
20260503025605 52 137 2.0 2.0 0.00 0.00 0.00 59 1020.5
20260503025104 52 137 1.0 3.0 0.00 0.00 0.00 58 1020.5
20260503024104 52 177 1.0 3.0 0.00 0.00 0.00 56 1020.6
20260503023604 51 145 0.0 3.0 0.00 0.00 0.00 57 1020.7
20260503023105 51 149 0.0 3.0 0.00 0.00 0.00 58 1020.7
20260503022604 51 150 0.0 2.0 0.00 0.00 0.00 59 1020.6
20260503022104 51 150 0.0 2.0 0.00 0.00 0.00 60 1020.6
20260503021104 51 150 0.0 1.0 0.00 0.00 0.00 60 1020.7
20260503020104 51 150 0.0 0.0 0.00 0.00 0.00 59 1020.8
20260503015604 52 150 0.0 1.0 0.00 0.00 0.00 58 1020.8
20260503015104 52 150 2.0 2.0 0.00 0.00 0.00 58 1020.8
20260503014604 52 150 2.0 2.0 0.00 0.00 0.00 58 1020.8
20260503014104 52 150 1.0 2.0 0.00 0.00 0.00 57 1020.9
20260503013104 51 141 1.0 2.0 0.00 0.00 0.00 59 1020.9
20260503012603 51 138 1.0 2.0 0.00 0.00 0.00 59 1021.0
20260503012104 51 138 1.0 2.0 0.00 0.00 0.00 59 1021.0
20260503011607 51 138 0.0 2.0 0.00 0.00 0.00 60 1021.0
20260503011105 52 138 1.0 2.0 0.00 0.00 0.00 60 1021.0
20260503010604 52 138 1.0 2.0 0.00 0.00 0.00 60 1021.0
20260503010105 52 138 1.0 2.0 0.00 0.00 0.00 59 1021.0
20260503005604 53 138 1.0 2.0 0.00 0.00 0.00 59 1021.1
20260503005105 53 194 1.0 2.0 0.00 0.00 0.00 58 1021.2
20260503004609 54 194 0.0 2.0 0.00 0.00 0.00 56 1021.2
20260503004106 54 159 0.0 0.0 0.00 0.00 0.00 55 1021.3
20260503003104 54 159 1.0 2.0 0.00 0.00 0.00 54 1021.3
20260503002606 54 153 1.0 2.0 0.00 0.00 0.00 53 1021.4
20260503002104 54 225 1.0 3.0 0.00 0.00 0.00 53 1021.4
20260503001604 55 243 1.0 3.0 0.00 0.00 0.00 53 1021.4
20260503000104 55 123 2.0 2.0 0.00 0.00 0.00 52 1021.4
20260502235604 55 123 2.0 2.0 0.00 0.00 0.00 52 1021.5
20260502234607 56 133 2.0 3.0 0.00 0.00 0.00 51 1021.5
20260502234103 56 137 2.0 5.0 0.00 0.00 0.00 50 1021.5
20260502233603 56 138 2.0 3.0 0.00 0.00 0.00 50 1021.5
20260502233104 57 139 2.0 5.0 0.00 0.00 0.00 49 1021.5